Flag for Germany Weather past 2 weeks in Bocholt, North Rhine-Westphalia, Germany

Now
61 °F

Clear.


Feels Like: 61 °F
Forecast: 53 / 70 °F
Wind: 5 mph from South

Location: Niederrhein

Current Time: Oct 2, 2014 at 3:15:22 AM

Latest Report: Oct 1, 2014 at 11:50 PM


Visibility: 10 mi

Pressure: 30.33 "Hg

Humidity: 94%

Dew point: 59 °F

Location of BocholtLocation

Historic Weather in Bocholt — Graph

°F

Bocholt temperature yesterday

Maximum temperature yesterday: 70 °F (at 2:50 PM)
Minimum temperature yesterday: 54 °F (at 5:50 AM)
Average temperature yesterday: 62 °F

Past Weeks' High & Low Weather Summary

 TemperatureHumidityPressure
High79 °F (Sep 17, 3:50 PM)100% (Sep 17, 5:50 AM)30.39 "Hg (Sep 17, 5:50 AM)
Low45 °F (Sep 23, 4:50 AM)48% (Sep 17, 3:50 PM)29.83 "Hg (Sep 18, 4:50 AM)
Average61 °F84%30.09 "Hg
* Reported Sep 16 11:20 PM — Oct 1 11:50 PM, Bocholt, Weather by CustomWeather, © 2014

Note: Actual official high and low records may vary slightly from our data, if they occured in-between our weather recording intervals... More about our weather records

Advertising

Bocholt weather history for previous 24 hours

 ConditionsComfort  
Time TempWeatherWind HumidityBarometerVisibility
11:50 PM
Oct 1
61 °FClear.5 mph94%30.33 "Hg10 mi
11:20 PM61 °FClear.3 mph94%30.33 "Hg10 mi
10:50 PM61 °FClear.2 mph94%30.33 "Hg10 mi
10:20 PM61 °FClear.2 mph94%30.33 "Hg10 mi
9:50 PM59 °FClear.1 mph100%30.33 "Hg5 mi
9:20 PM59 °FClear.No wind100%30.33 "Hg6 mi
8:50 PM59 °FClear.No wind100%30.33 "Hg6 mi
8:20 PM61 °FSunny.No wind94%30.33 "Hg10 mi
7:50 PM63 °FClear.1 mph88%30.33 "Hg5 mi
7:20 PM64 °FSunny.No wind83%30.30 "Hg10 mi
6:50 PM68 °FSunny.3 mph69%30.30 "Hg10 mi
6:20 PM68 °FPassing clouds.5 mph69%30.30 "HgN/A
5:50 PM70 °FPassing clouds.5 mph64%30.30 "HgN/A
5:20 PM70 °FSunny.6 mph64%30.30 "Hg10 mi
4:50 PM70 °FPassing clouds.6 mph64%30.30 "HgN/A
4:20 PM70 °FPassing clouds.6 mph64%30.30 "HgN/A
3:50 PM70 °FPassing clouds.6 mph64%30.30 "HgN/A
3:20 PM70 °FPassing clouds.7 mph64%30.30 "HgN/A
2:50 PM70 °FScattered clouds.7 mph69%30.30 "HgN/A
2:20 PM68 °FScattered clouds.7 mph73%30.30 "HgN/A
1:50 PM66 °FScattered clouds.8 mph78%30.33 "Hg6 mi
1:20 PM64 °FScattered clouds.8 mph83%30.33 "Hg4 mi
12:50 PM63 °FPartly sunny.8 mph88%30.33 "Hg4 mi
12:20 PM63 °FFog.7 mph100%30.33 "Hg3 mi
11:50 AM61 °FFog.5 mph100%30.33 "Hg2 mi
11:20 AM59 °FFog.6 mph100%30.33 "Hg2 mi
10:50 AM59 °FFog.6 mph100%30.33 "Hg1 mi
10:20 AM57 °FFog.6 mph100%30.30 "Hg1 mi
9:50 AM57 °FFog.7 mph100%30.30 "Hg1 mi
9:20 AM57 °FFog.6 mph100%30.30 "Hg1 mi
8:50 AM57 °FFog.5 mph100%30.30 "Hg1 mi
8:20 AM57 °FFog.7 mph100%30.30 "Hg0 mi
7:50 AM57 °FFog.6 mph100%30.27 "Hg0 mi
7:20 AM57 °FFog.6 mph100%30.27 "Hg1 mi
6:50 AM55 °FFog.3 mph100%30.27 "Hg2 mi
6:20 AM55 °FFog.5 mph100%30.27 "Hg2 mi
5:50 AM54 °FFog.5 mph100%30.27 "Hg2 mi
5:20 AM55 °FFog.2 mph100%30.27 "Hg2 mi
4:50 AM55 °FFog.2 mph100%30.27 "Hg2 mi
Weather by CustomWeather, © 2014

See weather overviewHow to use our weather pages